Terminal Aerodrome Forecast
Issued by NWS Grand Forks, ND

Home | Current Version | Previous Version | Text Only | Print | Product List | Glossary Off
Versions: 1 2 3 4 5 6 7 8 9 10 11 12 13 14 15 16 17 18 19 20 21 22 23 24 25

981
FTUS43 KFGF 251458 AAA
TAFFAR
TAF AMD
KFAR 251458Z 2515/2612 15015KT P6SM BKN200
      TEMPO 2515/2518 BKN020
     FM251800 15014G20KT P6SM SCT040
     FM260000 15012KT P6SM FEW150
     FM260800 VRB05KT P6SM BKN025=

USA.gov is the U.S. government's official web portal to all federal, state and local government web resources and services.